Westford, VT (05494)

9:19 AM EDT en Marzo 29, 2017 (GMT -0400)
Coyote Ridge | | Change Station

Alt 472 ft 44.63 °N, 73.01 °W | Updated 13 seconds ago

Nublado
Nublado
35.1 ° F
Sensación térmica 35 ° F
N
0.9
Viento Variable Viento desde NNE
Gusts 2.5 mph

Hoy
Alta -- | Baja -- ° F
--% Posibilidad de precipitaciones
Ayer
Alta -- | Baja -- ° F
Precip. -- pul
Presión 30.14 pul
Visibilidad 10.0 Millas
Nubes Nublado 4000 ft
Vientos helados 35 ° F
Punto de rocío 26 ° F
Humedad 70%
Precipitaciones 0.00 pul
Espesor de la nieve No disponible.
6:38 AM 7:16 PM
Creciente, 3% visible
METAR KBTV 291254Z 01004KT 10SM OVC040 02/M01 A3013 RMK AO2 SLP206 FG OBSCG MTNS DSNT E-S T00221006
Presión 30.14 pul
Visibilidad 10.0 Millas
Nubes Nublado 4000 ft
Vientos helados 35 ° F
Punto de rocío 26 ° F
Humedad 70%
Precipitaciones 0.00 pul
Espesor de la nieve No disponible.
6:38 AM 7:16 PM
Creciente, 3% visible
METAR KBTV 291254Z 01004KT 10SM OVC040 02/M01 A3013 RMK AO2 SLP206 FG OBSCG MTNS DSNT E-S T00221006

Get Severe Weather Alerts

Thanks for signing up!

Be on the lookout for a verification email in your inbox.

You'll start receiving the daily forecast at 8 AM.

×

10-Day Weather Forecast

Almanac

Astronomía

Mar. 29, 2017 Salida Puesta
Hora real
Crepúsculo civil
Crepúsculo náutico
Crepúsculo astronómico
Luna
Horas de luz
Horas de luz
Tomorrow will be .
, % of the Moon is Illuminated

Extremos de hoy

Máximos del estado Bajos del estado

Community

WunderPhotos

Upload Photos

1,962,540 ¡fotos cargadas!

WunderBlog® & News

Nearby

Calidad del aire

  Calidad del aire Índice AQ Contaminante
Not available.

Grosos de nieve

Estación Profundido Altura

Actividad de terremotos

Ciudad Distance Mag. Tiempo y dato
Magnitud mínima muestra es 2,5.

Actividad de terremotos

Ciudad Distance Mag. Tiempo y dato
Magnitud mínima muestra es 2,5.

Temperaturas de aguas costeras

Lugar Temperatura

Stations

Estaciones meteorológicas cercanas

Ubicación de la estación Temp. Vientos helados Punto de rocío Humedad Viento Precip. Alt Actualizado Tipo
                   

Watches & Warnings

There are currently no watches in effect.